Flag for United Kingdom Weather past 2 weeks in Bridlington, England, United Kingdom

Now
51 °F

Cool.


Feels Like: 49 °F
Forecast: 47 / 57 °F
Wind: 5 mph from West

Location: Bridlington Mrsc

Current Time: May 25, 2015 at 11:48:05 PM

Latest Report: May 25, 2015 at 11:00 PM


Visibility: N/A

Pressure: 30.10 "Hg

Humidity: 79%

Dew point: 44 °F

Location of BridlingtonLocation

Historic Weather in Bridlington — Graph

°F

Bridlington temperature yesterday

Maximum temperature yesterday: 60 °F (at 1:00 PM)
Minimum temperature yesterday: 46 °F (at 3:00 AM)
Average temperature yesterday: 53 °F

Past Weeks' High & Low Weather Summary

 TemperatureHumidityPressure
High69 °F (May 22, 3:00 PM)100% (May 18, 10:00 AM)30.32 "Hg (May 18, 10:00 AM)
Low41 °F (May 14, 3:00 AM)34% (May 11, 3:00 PM)29.38 "Hg (May 19, 5:00 AM)
Average52 °F73%30.00 "Hg
* Reported May 10 9:00 PM — May 25 9:00 PM, Bridlington, Weather by CustomWeather, © 2015

Note: Actual official high and low records may vary slightly from our data, if they occured in-between our weather recording intervals... More about our weather records

Advertising

Bridlington weather history for previous 24 hours

 ConditionsComfort  
Time TempWeatherWind HumidityBarometerVisibility
9:00 PM
Mon, May 25
51 °FCool.6 mph82%30.08 "HgN/A
8:00 PM51 °FCool.7 mph79%30.08 "HgN/A
7:00 PM52 °FCool.7 mph81%30.07 "HgN/A
6:00 PM53 °FCool.7 mph75%30.06 "HgN/A
5:00 PM54 °FCool.7 mph69%30.06 "HgN/A
4:00 PM55 °FCool.8 mph63%30.05 "HgN/A
3:00 PM54 °FCool.8 mph69%30.06 "HgN/A
2:00 PM53 °FCool.9 mph61%30.05 "HgN/A
1:00 PM55 °FCool.9 mph59%30.05 "HgN/A
12:00 PM54 °FCool.10 mph59%30.05 "HgN/A
11:00 AM55 °FCool.9 mph65%30.05 "HgN/A
10:00 AM54 °FCool.9 mph60%30.04 "HgN/A
9:00 AM53 °FCool.13 mph66%30.04 "HgN/A
8:00 AM52 °FCool.12 mph67%30.03 "HgN/A
7:00 AM50 °FCool.12 mph71%30.03 "HgN/A
6:00 AM49 °FCool.9 mph73%30.03 "HgN/A
5:00 AM49 °FCool.10 mph71%30.03 "HgN/A
4:00 AM49 °FCool.7 mph74%30.04 "HgN/A
3:00 AM50 °FCool.8 mph73%30.04 "HgN/A
2:00 AM50 °FCool.6 mph73%30.04 "HgN/A
1:00 AM50 °FCool.7 mph72%30.05 "HgN/A
12:00 AM51 °FCool.7 mph70%30.06 "HgN/A
11:00 PM
Sun, May 24
50 °FCool.6 mph69%30.06 "HgN/A
Weather by CustomWeather, © 2015

See weather overviewHow to use our weather pages